Volver al catálogo

NOAA 16 DEB

ActivoPO
NORAD 42367·DEBRIS·🇺🇸 United States

Lanzado Sep 21, 2000 desde Vandenberg Space Force Base

Loading…

Próximos Pases (próximas 24 horas)

TLE

ActualizadoSource: Space-Track

Época: Sep 13, 2026, 08:15 UTC

1 42367U 00055RK  26256.34392004  .00010786  00000-0  24207-2 0  9997
2 42367  98.8882  30.1364 0017174 177.6103 182.5178 14.56649573540280

Sigue NOAA 16 DEB en tiempo real con AllMySat

Download on the App Store